STARLINK-32432, 61257

Orbit data source: Space-Track

STARLINK-32432, 61257 is a payload satellite owned by SpaceX/Seattle (US) in LEO that was launched on Wed, 25 Sep 2024 UTC via an FALCON 9 launch vehicle from the Air Force Western Test Range (AFWTR). Payload-class satellites include a variety of spacecraft equipped with specific instruments for various scientific and technological missions. These include communications satellites like Starlink; space stations such as the ISS; scientific satellites like the Hubble; Earth observation satellites from companies like Planet Labs, Umbra, and HawkEye 360; GPS; miniature CubeSats for education and research; and military/defense satellites.

Loading next visibility...
Identifier
61257, 2024-175Q
Orbit
LEO
Last TLE update
12 hours ago
Origin
Manufacturer
SpaceX/Seattle
Mission
Operational Commercial Communications
Bus & Motor
STARLINK V2M, Unknown motor
Mass
730 kg wet, ~700 kg dry
Launch date (UTC)
2024-09-25 (9 months ago)
Launch vehicle
FALCON 9
Launch site
Air Force Western Test Range (AFWTR)
Object type
Payload
Rocket body
Debris
Shape & HBR
Box + 2 Pan, 29 m
Radar Cross Section
33.884 m², Large (>1 m²)

Expand to show TLE details & history

TLE from 12 hours ago
0 STARLINK-32432
1 61257U 24175Q   25182.55794950 -.00000517  00000-0 -53343-5 0  9990
2 61257  53.1600 280.5636 0001057  72.2906 287.8210 15.30191098 43009
Epoch: 2025-07-01T13:23Z
TLE epoch observation values (Epoch: 2025-07-01T13:23:26.836Z)
Latitude
-0.00004°
Longitude
159.85007°
Altitude
475.92 km
Speed
7.629 km/s
True Right ascension
18h 42m 15s
True Declination
0° 00' 00"
Sunlit
Object was in full shadow at epoch
Visualization orbit readout
Latitude
-40.60542°
Longitude
17.22413°
Altitude
489.343 km
Speed
7.62 km/s
Apparent Right ascension
05h 20m 56s
Apparent Declination
-60° 00' 40"
Sunlit
Object is in daylight
Visualization observer readout
Local Sidereal Time
13:03:51
Azimuth
220.615° SW
Elevation
-46.235°
Doppler factor
1
Orbital elements
Apogee altitude
476.223 km
Perigee altitude
474.774 km
Semi-major axis
6,853.635 km
Eccentricity
0.00011
Inclination
53.16°
RAAN
280.5636°
Arg. of periapsis
72.2906°
True anomaly
Unknown
Mean anomaly
287.821°
Eccentric anomaly
Unknown
Mean motion
3.82527 °/min
Orbital period
94.11 mins
BSTAR
-0.0000053343
Loading maneuver chart data...
Loading SW <> Apogee altitude chart data...
Loading historical data...
Loading historical data...
Loading historical data...
Loading historical data...
Loading historical data...
Loading historical data...
Loading historical data...

STARLINK-32432 Visibility forecast

Observer location: undefined°, undefined°

Span
Click to sort rows by Start time (UTC) header in descending order
Start Az.
Max El. time (UTC)
Max El. Az.
Max El.
End time (UTC)
End Az.
6 mins2025-07-02 08:20:56.792Z187.261° SSW2025-07-02 08:23:56.792Z131.397° SE23.216°2025-07-02 08:26:56.792Z74.46° E
5 mins2025-07-02 09:59:56.792Z272.161° WNW2025-07-02 10:01:56.792Z335.721° NNW31.694°2025-07-02 10:04:56.792Z35.813° NE
4 mins2025-07-02 14:56:56.792Z345.928° N2025-07-02 14:58:56.792Z37.307° NE24.406°2025-07-02 15:00:56.792Z79.907° E
5 mins2025-07-02 16:34:56.792Z281.964° WNW2025-07-02 16:36:56.792Z212.488° SW33.202°2025-07-02 16:39:56.792Z155.577° SSE
|